Weather in Chechelnyk

Ukraine / Vinnytsia Region     48°12′59″N   29°20′53″E
temp.,
°C
wind,
m/s
gust,
m/s
humid.,
%
clouds,
%
prec.,
mm/h
press.,
hPa
HPBL,
m
16 may, sun
sun1600:00+12ese22805 0.0 101214
03:00+11e228627 0.0 101220
06:00+10se35919 0.0 101181
09:00+16ese4573100 0.0 1011316
12:00+20sse455779 0.0 1011994
15:00+22se454897 0.0 10102138
18:00+21ese3660100 0.0 1008360
21:00+17ese2271100 0.1 100824
17 may, mon
mon1700:00+14e227777 0.0 100811
03:00+14nne2279100 0.0 100712
06:00+14nne3684100 0.0 1005134
09:00+16ne3583100 0.1 1005291
12:00+15ene4593100 3.3 1005414
15:00+15n4593100 8.6 1004298
18:00+16nnw4683100 1.1 1003374
21:00+13wnw229321 1.1 100332
18 may, tue
tue1800:00+12wsw11904 0.0 100311
03:00+11sse229181 0.1 100224
06:00+12sse2497100 1.5 1001119
09:00+15ssw248790 2.4 1001388
12:00+18w567583 2.6 1001978
15:00+13w81189100 5.8 1004799
18:00+11w8128897 2.1 1006784
21:00+10w71391100 2.4 1007791
19 may, wed
wed1900:00+10w71586100 0.0 1008831
03:00+10wsw8168846 0.0 1008672
06:00+9w71788100 0.0 1009696
09:00+12w8147897 0.0 10101259
12:00+13w7117556 0.2 10111243
15:00+16w8106179 0.3 10111680
18:00+16wnw5865100 0.1 10121289
21:00+11wnw22815 0.1 101311
20 may, thu
thu2000:00+10nne228685 0.0 101312
03:00+10ese2286100 0.0 101318
06:00+10e3585100 0.0 1012127
09:00+11ese4985100 0.0 1012349
12:00+12e3689100 0.9 1011277
15:00+13ne2486100 2.1 1011155
18:00+11ne2294100 2.4 101186
21:00+10nne5998100 6.5 1010368